Home   Weather   Nîmes   Past weeks

Flag for France Past Weather in Nîmes, Languedoc-Roussillon, France — Yesterday and Last 2 Weeks

Now
45 °F

Sunny.


Feels Like: 41 °F
Forecast: 32 / 51 °F
Wind: 6 mph from Northeast

Location: Nimes / Garons

Current Time: Dec 7, 2016 at 10:01:22 am

Latest Report: Dec 7, 2016 at 9:30 am


Visibility: 10 mi

Pressure: 30.45 "Hg

Humidity: 71%

Dew Point: 36 °F

Location of NîmesLocation

Past Weather in Nîmes — Graph

°F

Nîmes Temperature Yesterday

Maximum temperature yesterday: 61 °F (at 2:00 pm)
Minimum temperature yesterday: 41 °F (at 2:30 am)
Average temperature yesterday: 49 °F

High & Low Weather Summary for the Past Weeks

 TemperatureHumidityPressure
High66 °F (Nov 23, 11:00 am)100% (Nov 24, 9:00 pm)30.54 "Hg (Nov 24, 9:00 pm)
Low32 °F (Dec 2, 6:00 am)38% (Dec 2, 1:00 pm)29.71 "Hg (Nov 24, 12:30 am)
Average50 °F76%30.08 "Hg
* Reported Nov 22 9:00 am — Dec 7 9:00 am, Nîmes, Weather by CustomWeather, © 2016

Note: Actual official high and low records may vary slightly from our data, if they occured in-between our weather recording intervals... More about our weather records

Advertising

Nîmes Weather History for the Previous 24 Hours

Scroll right to see more
 ConditionsComfort  
Time TempWeatherWind HumidityBarometerVisibility
9:00 am
Wed, Dec 7
43 °FSunny.7 mph71%30.45 "Hg10 mi
8:30 am41 °FPassing clouds.6 mph76%30.45 "HgN/A
8:00 am41 °FClear.6 mph76%30.45 "Hg10 mi
7:30 am39 °FClear.6 mph75%30.45 "Hg10 mi
7:00 am41 °FPassing clouds.6 mph70%30.42 "HgN/A
6:30 am41 °FClear.5 mph76%30.42 "Hg10 mi
6:00 am43 °FClear.8 mph71%30.42 "Hg10 mi
5:30 am43 °FClear.8 mph71%30.42 "Hg10 mi
5:00 am43 °FClear.10 mph71%30.42 "Hg10 mi
4:30 am43 °FClear.8 mph71%30.42 "Hg10 mi
4:00 am45 °FClear.8 mph66%30.42 "Hg10 mi
3:30 am43 °FClear.7 mph71%30.42 "Hg10 mi
3:00 am43 °FClear.8 mph71%30.42 "Hg10 mi
2:30 am43 °FClear.7 mph71%30.42 "Hg10 mi
2:00 am43 °FClear.7 mph71%30.42 "Hg10 mi
1:30 am43 °FClear.6 mph71%30.42 "Hg10 mi
1:00 am45 °FClear.6 mph66%30.42 "Hg10 mi
12:30 am45 °FClear.6 mph66%30.39 "Hg10 mi
12:00 am46 °FClear.8 mph62%30.39 "Hg10 mi
11:30 pm
Tue, Dec 6
46 °FClear.7 mph62%30.39 "Hg10 mi
11:00 pm46 °FClear.6 mph66%30.39 "Hg10 mi
10:00 pm46 °FClear.7 mph66%30.36 "Hg10 mi
9:30 pm46 °FClear.7 mph66%30.36 "Hg10 mi
9:00 pm48 °FClear.8 mph62%30.36 "Hg10 mi
8:30 pm48 °FClear.6 mph62%30.36 "Hg10 mi
8:00 pm50 °FClear.9 mph58%30.36 "Hg10 mi
7:00 pm50 °FClear.8 mph62%30.33 "Hg10 mi
6:30 pm48 °FPassing clouds.6 mph66%30.33 "HgN/A
6:00 pm50 °FPassing clouds.7 mph62%30.33 "HgN/A
5:30 pm50 °FClear.5 mph62%30.33 "Hg10 mi
5:00 pm54 °FPassing clouds.5 mph54%30.33 "HgN/A
4:30 pm55 °FSunny.7 mph55%30.30 "Hg10 mi
4:00 pm59 °FPassing clouds.6 mph48%30.30 "HgN/A
3:30 pm61 °FPassing clouds.5 mph48%30.30 "HgN/A
3:00 pm61 °FPassing clouds.6 mph48%30.30 "HgN/A
2:30 pm61 °FPassing clouds.7 mph48%30.30 "HgN/A
2:00 pm61 °FPassing clouds.8 mph52%30.30 "HgN/A
1:30 pm59 °FPassing clouds.5 mph55%30.30 "HgN/A
1:00 pm57 °FPassing clouds.6 mph63%30.30 "HgN/A
12:30 pm57 °FPassing clouds.5 mph63%30.30 "HgN/A
12:00 pm55 °FSunny.8 mph67%30.33 "Hg10 mi
11:30 am54 °FSunny.6 mph67%30.33 "Hg10 mi
11:00 am52 °FSunny.7 mph67%30.33 "Hg10 mi
10:30 am50 °FPassing clouds.6 mph71%30.33 "HgN/A
10:00 am48 °FPassing clouds.3 mph76%30.33 "HgN/A
Weather by CustomWeather, © 2016

See weather overviewHow to use our weather pages